weather.gov     
National Weather Service

Terminal Aerodrome Forecast
NWS Homepage
This page is being discontinued on March 12, 2014.
The same data is available at this site. Please update your bookmarks.
Thank you, and we apologize for the inconvenience.
Please send an email to SR-SRH.Webmaster@noaa.gov with any concerns.


Current Version
Previous Version:    01  02  03  04  05  06  07  08  09  10  11  12  13  14  15  16  17  18  19  20  21  22  23  24  25  26  27  28  29  30  
   31  32  33  34  35  36  37  38  39  40  41  42  43  44  45  
[Printable]
630
FTUS44 KCRP 302300 AAA
TAFALI
TAF AMD
KALI 302339Z 3100/3124 09010KT P6SM SCT018 OVC200
      TEMPO 3100/3102 BKN018
     FM310200 08010KT P6SM BKN015 OVC200
     FM310400 08008KT P6SM OVC014
     FM311000 09008KT 5SM BR BKN008 OVC014
     FM311600 12010KT P6SM BKN015 OVC040
     FM311900 15016G23KT P6SM SCT025 OVC120=


U.S. Dept. of Commerce
NOAA National Weather Service
1325 East West Highway
Silver Spring, MD 20910
E-mail: w-nws.webmaster@noaa.gov
Page last modified: May 16, 2007
NATIONAL WEATHER SERVICE: for Safety, for Work, for Fun - FOR LIFE